This demonstration page uses our WeatherBlox Daily Observations layout. Learn more.

38.89511, -77.03637

Hourly Observations for June 7, 2018

Temp ( °F °C ) Dew Point ( °F °C ) Humidity (%) Winds ( mph kmh ) Pressure ( in mb ) Visibility ( mi km ) Precip ( " mm )
12:52 am 00:52 Cloudy 66 18.9 53 11.7 63 63 NNW 7 11 30 1016 10 16.09344 0 0
1:52 am 01:52 Mostly Cloudy 65 18.3 52 11.1 63 63 NNW 7 11 30 1016 10 16.09344 0 0
2:52 am 02:52 Partly Cloudy 64 17.8 52 11.1 65 65 NNW 5 7 30 1016 10 16.09344 0 0
3:52 am 03:52 Partly Cloudy 63 17.2 53 11.7 70 70 NNW 6 9 30 1016 10 16.09344 0 0
4:52 am 04:52 Mostly Cloudy 63 17.2 54 12.2 73 73 NNW 6 9 30.03 1017 10 16.09344 0 0
5:52 am 05:52 Mostly Cloudy 64 17.8 54 12.2 70 70 NNW 5 7 30.06 1018 10 16.09344 0 0
6:52 am 06:52 Mostly Cloudy 64 17.8 54 12.2 70 70 N 6 9 30.06 1018 10 16.09344 0 0
7:52 am 07:52 Mostly Cloudy 66 18.9 55 12.8 68 68 N 5 7 30.09 1019 10 16.09344 0 0
8:52 am 08:52 Mostly Cloudy 68 20 56 13.3 65 65 NNE 5 7 30.09 1019 10 16.09344 0 0
9:52 am 09:52 Partly Cloudy 69 20.6 55 12.8 61 61 ESE 5 7 30.09 1019 10 16.09344 0 0
10:52 am 10:52 Partly Cloudy 71 21.7 58 14.4 63 63 SSE 5 7 30.09 1019 10 16.09344 0 0
11:52 am 11:52 Mostly Cloudy 74 23.3 59 15 60 60 S 10 17 30.09 1019 10 16.09344 0 0
12:52 pm 12:52 Mostly Cloudy 75 23.9 60 15.6 60 60 SSE 9 15 30.09 1019 10 16.09344 0 0
1:52 pm 13:52 Mostly Cloudy 75 23.9 60 15.6 60 60 S 10 17 30.09 1019 10 16.09344 0 0
2:52 pm 14:52 Mostly Cloudy 76 24.4 59 15 56 56 SSE 9 15 30.06 1018 10 16.09344 0 0
3:52 pm 15:52 Mostly Cloudy 78 25.6 59 15 52 52 S 9 15 30.06 1018 10 16.09344 0 0
4:52 pm 16:52 Cloudy 78 25.6 59 15 52 52 S 9 15 30.06 1018 10 16.09344 0 0
5:52 pm 17:52 Cloudy 76 24.4 59 15 56 56 S 10 17 30.03 1017 10 16.09344 0 0
6:52 pm 18:52 Cloudy 77 25 59 15 54 54 S 7 11 30.06 1018 10 16.09344 0 0
7:52 pm 19:52 Mostly Cloudy 74 23.3 61 16.1 64 64 S 9 15 30.06 1018 10 16.09344 0 0
8:52 pm 20:52 Partly Cloudy 72 22.2 63 17.2 73 73 SSE 9 15 30.06 1018 10 16.09344 0 0
9:52 pm 21:52 Clear 71 21.7 62 16.7 73 73 S 8 13 30.09 1019 10 16.09344 0 0
10:52 pm 22:52 Clear 70 21.1 62 16.7 76 76 S 7 11 30.12 1020 10 16.09344 0 0
11:52 pm 23:52 Clear 68 20 62 16.7 81 81 S 6 9 30.12 1020 10 16.09344 0 0

Powered by AerisWeather